Powrót do katalogu

STARLINK-34536

AktywnyŁącznośćVLEO
NORAD 64748·PAYLOAD·🇺🇸 United States

Wystrzelony Jul 2, 2025 z Cape Canaveral Space Force Station

Loading…

Następne Przeloty (najbliższe 24 godziny)

TLE

ŚwieżeSource: CelesTrak SupGP

Epoka: Sep 15, 2026, 02:53 UTC

1 64748C 25144AA  26258.12062500  .00033490  00000+0  98957-3 0  2581
2 64748  53.1612  20.6566 0001006  81.5543 201.9752 15.34370959    10

Śledź STARLINK-34536 w czasie rzeczywistym z AllMySat

Download on the App Store